Zurück zum Katalog

BREEZE-M DEB

TANK

AktivHEO
NORAD 36399·DEBRIS·🇷🇺 Russia

Gestartet Feb 12, 2010 von Baikonur Cosmodrome

Loading…

Nächste Überflüge (nächste 24 Stunden)

TLE

AktuellSource: Space-Track

Epoche: Sep 12, 2026, 22:11 UTC

1 36399U 10006C   26255.92478979 -.00000009  00000-0  67278-3 0  9995
2 36399  45.9556 311.5808 7208930 235.8843  34.5859  2.26705319135956

Verfolge BREEZE-M DEB in Echtzeit mit AllMySat

Download on the App Store